User: anonymous   Login
Location: Palomar Mountain Lodge
(33.3110°N, 116.8495°W)
Time: 11:24:00
(UTC-08:00)
Language:

Cosmos 2184 Rocket - Orbit

View from above orbital plane
View from above orbital plane
View from above satellite
View from above satellite

Ground track
Ground track

The orbit data is extracted from the following two-line orbital elements,

1 21938U 92020B   18051.88987865 +.00000082 +00000-0 +69977-4 0  9992
2 21938 082.9327 175.8253 0028633 216.0434 259.7665 13.75267389297176
Epoch (UTC): 20 February 2018 21:21:25
Eccentricity: 0.0028633
inclination: 82.9327°
perigee height: 959 km
apogee height: 1002 km
right ascension of ascending node: 175.8253°
argument of perigee: 216.0434°
revolutions per day: 13.75267389
mean anomaly at epoch: 259.7665°
orbit number at epoch: 29717

The dashed part of the orbit path shows where the satellite is in the earth's shadow,  

DLR